Voltar ao catálogo

FENGYUN 1C DEB

AtivoSSO
NORAD 31014·DEBRIS·🇨🇳 China

Lançado May 10, 1999 de Taiyuan Satellite Launch Center

Loading…

Próximas Passagens (próximas 24 horas)

TLE

AtualizadoSource: Space-Track

Época: Sep 14, 2026, 10:00 UTC

1 31014U 99025BDG 26257.41703595 -.00000256  00000-0 -14406-3 0  9993
2 31014  98.9013 229.5070 0088596 151.0432   1.1107 13.98583369996894

Acompanhe FENGYUN 1C DEB em tempo real com AllMySat

Download on the App Store